Precipitable_Water
0.83 0.82 0.81 0.80 0.78 0.77 0.75 0.74 0.72 0.70 0.69 0.66 0.63 0.62 0.60 0.58 0.58 0.58 0.56 0.53 0.49 0.49 0.48 0.47 0.46 0.47 0.48 0.48 0.47 0.45 0.43 0.36 0.30 0.28 0.27 0.22 0.25 0.31 0.29 0.29 0.42 0.64 0.84 0.82 0.93 0.87 0.80 0.89 0.89 1.07 1.03 0.99 1.00 1.02 1.22 1.20 1.39 1.25 0.99 0.91 0.84 0.94 0.86 0.91 0.89 0.88 0.89 0.86 0.92 1.00 1.07 1.07 0.99 1.09 1.14 1.24 1.14 1.15 1.17 1.21 1.26 1.35 1.31 1.42 1.46 1.49 1.55 1.60
0.82 0.81 0.80 0.79 0.77 0.76 0.75 0.75 0.74 0.72 0.70 0.68 0.66 0.65 0.64 0.62 0.61 0.59 0.58 0.58 0.56 0.51 0.49 0.49 0.46 0.46 0.47 0.46 0.47 0.46 0.41 0.35 0.27 0.25 0.23 0.29 0.28 0.29 0.30 0.26 0.44 0.67 0.83 0.79 0.66 0.74 0.72 0.78 0.87 0.95 0.97 0.83 1.13 0.95 1.19 1.02 1.29 1.02 0.94 0.90 0.85 0.95 1.04 1.02 1.02 1.00 0.94 0.88 0.94 0.99 1.10 1.07 1.06 1.10 1.12 0.99 0.97 1.06 1.03 1.16 1.22 1.18 1.33 1.45 1.46 1.46 1.48 1.53
0.83 0.81 0.80 0.79 0.78 0.76 0.75 0.74 0.73 0.71 0.69 0.69 0.68 0.66 0.65 0.65 0.63 0.63 0.62 0.60 0.59 0.58 0.54 0.50 0.49 0.46 0.46 0.46 0.44 0.43 0.41 0.28 0.28 0.23 0.26 0.40 0.36 0.34 0.32 0.33 0.49 0.63 0.70 0.63 0.62 0.71 0.75 0.76 0.90 0.90 0.93 0.85 0.97 0.91 1.01 1.04 1.10 1.07 0.95 0.84 0.85 0.99 1.07 1.04 1.03 1.02 1.03 0.97 0.94 0.97 1.03 1.04 1.10 1.12 1.19 0.98 0.97 1.00 0.94 1.03 1.13 1.12 1.13 1.25 1.36 1.40 1.42 1.45
0.81 0.80 0.79 0.79 0.78 0.77 0.75 0.74 0.72 0.71 0.71 0.70 0.68 0.67 0.65 0.65 0.66 0.67 0.66 0.64 0.62 0.61 0.59 0.56 0.51 0.49 0.46 0.43 0.43 0.42 0.35 0.29 0.21 0.22 0.43 0.42 0.42 0.42 0.34 0.43 0.55 0.54 0.65 0.66 0.63 0.68 0.87 0.95 0.89 0.87 0.86 0.83 0.88 1.00 0.86 1.06 0.89 1.05 0.91 0.81 0.97 1.09 0.99 1.03 1.08 1.06 1.06 1.04 0.94 0.94 0.97 0.95 1.04 1.08 1.07 0.98 0.95 0.93 0.96 1.08 1.06 1.09 1.15 1.22 1.29 1.34 1.37 1.39
0.77 0.77 0.76 0.76 0.76 0.75 0.75 0.73 0.72 0.70 0.70 0.68 0.66 0.65 0.65 0.66 0.67 0.67 0.67 0.66 0.65 0.63 0.62 0.61 0.57 0.52 0.48 0.44 0.39 0.41 0.27 0.18 0.20 0.36 0.47 0.46 0.43 0.39 0.35 0.48 0.56 0.53 0.55 0.59 0.61 0.66 0.79 0.88 0.87 0.86 0.83 0.71 0.86 0.87 0.88 0.99 0.94 1.08 0.87 0.94 1.03 1.05 0.97 1.07 1.05 1.06 1.05 1.02 0.90 0.90 0.89 0.92 1.05 0.99 1.01 1.03 0.89 0.85 0.90 1.01 1.10 1.13 1.19 1.21 1.21 1.28 1.33 1.33
0.69 0.70 0.70 0.71 0.72 0.72 0.71 0.71 0.70 0.69 0.68 0.68 0.66 0.65 0.65 0.67 0.66 0.67 0.66 0.66 0.66 0.66 0.64 0.64 0.62 0.57 0.52 0.46 0.41 0.35 0.22 0.10 0.22 0.44 0.50 0.54 0.48 0.40 0.36 0.49 0.57 0.56 0.48 0.46 0.47 0.58 0.71 0.78 0.80 0.76 0.74 0.71 0.76 0.63 0.80 0.90 1.00 0.72 0.89 0.90 1.03 1.15 1.07 1.14 1.13 1.10 1.03 0.99 0.92 0.85 0.94 0.98 0.90 0.86 0.90 1.01 0.99 0.97 1.04 1.06 1.14 1.17 1.20 1.24 1.29 1.27 1.24 1.27
0.62 0.61 0.62 0.62 0.62 0.63 0.63 0.63 0.64 0.66 0.66 0.66 0.65 0.65 0.67 0.67 0.68 0.67 0.66 0.65 0.66 0.67 0.67 0.67 0.65 0.64 0.54 0.48 0.42 0.30 0.21 0.16 0.21 0.44 0.68 0.55 0.51 0.44 0.37 0.50 0.62 0.56 0.42 0.38 0.41 0.52 0.62 0.65 0.70 0.69 0.70 0.65 0.77 0.68 0.78 0.82 0.91 0.79 0.72 0.90 0.95 1.05 1.02 1.13 1.11 1.15 1.08 1.01 0.91 0.92 0.94 0.86 0.91 0.78 0.92 0.91 1.01 1.11 1.14 1.11 1.13 1.22 1.24 1.24 1.20 1.22 1.20 1.23
0.59 0.58 0.58 0.58 0.57 0.56 0.55 0.55 0.56 0.58 0.60 0.62 0.63 0.64 0.66 0.67 0.67 0.66 0.65 0.65 0.66 0.68 0.69 0.70 0.69 0.65 0.61 0.47 0.32 0.21 0.17 0.13 0.22 0.31 0.43 0.47 0.45 0.45 0.43 0.49 0.52 0.52 0.39 0.35 0.39 0.45 0.54 0.55 0.55 0.72 0.66 0.59 0.71 0.70 0.82 0.77 0.81 0.73 0.72 0.80 0.94 1.01 1.03 1.08 1.06 1.03 1.01 0.93 0.93 0.91 0.81 0.80 0.90 0.84 0.88 0.89 0.96 1.09 1.13 1.16 1.14 1.20 1.20 1.16 1.14 1.17 1.20 1.22
0.58 0.57 0.56 0.56 0.55 0.54 0.52 0.52 0.51 0.52 0.53 0.54 0.56 0.60 0.63 0.65 0.66 0.66 0.66 0.67 0.68 0.71 0.71 0.72 0.70 0.69 0.65 0.48 0.29 0.16 0.12 0.18 0.23 0.24 0.27 0.38 0.45 0.48 0.47 0.43 0.52 0.44 0.38 0.38 0.41 0.38 0.45 0.51 0.55 0.66 0.55 0.61 0.74 0.69 0.80 0.66 0.59 0.73 0.75 0.87 0.90 0.92 0.95 0.94 0.92 0.88 0.85 0.86 0.89 0.81 0.75 0.80 0.86 0.95 0.81 0.92 0.96 1.08 1.14 1.17 1.16 1.16 1.14 1.12 1.09 1.12 1.17 1.18
0.57 0.57 0.56 0.55 0.54 0.52 0.50 0.49 0.49 0.49 0.50 0.50 0.50 0.54 0.58 0.61 0.64 0.66 0.69 0.72 0.73 0.74 0.74 0.73 0.72 0.69 0.57 0.44 0.31 0.15 0.15 0.23 0.35 0.32 0.40 0.33 0.53 0.47 0.41 0.43 0.47 0.46 0.39 0.40 0.43 0.39 0.37 0.48 0.51 0.66 0.70 0.65 0.73 0.64 0.78 0.64 0.56 0.78 0.79 0.79 0.79 0.83 0.86 0.85 0.79 0.78 0.81 0.80 0.83 0.73 0.70 0.73 0.85 0.85 0.72 0.89 1.01 1.11 1.11 1.13 1.20 1.13 1.10 1.13 1.11 1.10 1.16 1.17
0.52 0.52 0.52 0.51 0.50 0.50 0.49 0.48 0.47 0.47 0.48 0.48 0.48 0.48 0.51 0.56 0.61 0.67 0.73 0.76 0.77 0.77 0.77 0.76 0.74 0.68 0.50 0.46 0.28 0.17 0.23 0.24 0.40 0.51 0.43 0.44 0.50 0.43 0.40 0.52 0.50 0.44 0.39 0.41 0.40 0.40 0.38 0.47 0.52 0.71 0.61 0.53 0.66 0.59 0.64 0.66 0.64 0.67 0.69 0.71 0.72 0.76 0.80 0.81 0.79 0.78 0.78 0.71 0.73 0.72 0.67 0.69 0.71 0.83 0.73 0.85 1.04 1.09 1.05 1.10 1.15 1.14 1.09 1.12 1.13 1.10 1.15 1.17
0.48 0.47 0.47 0.46 0.45 0.44 0.44 0.45 0.46 0.47 0.47 0.45 0.46 0.47 0.48 0.51 0.57 0.69 0.76 0.78 0.79 0.80 0.79 0.78 0.77 0.67 0.55 0.43 0.32 0.23 0.34 0.46 0.44 0.54 0.55 0.59 0.52 0.50 0.62 0.60 0.53 0.48 0.42 0.38 0.39 0.41 0.40 0.46 0.55 0.62 0.34 0.50 0.49 0.55 0.55 0.68 0.65 0.62 0.64 0.55 0.60 0.66 0.67 0.71 0.68 0.72 0.72 0.67 0.69 0.66 0.61 0.58 0.65 0.68 0.78 0.90 1.12 1.09 1.05 1.06 1.12 1.13 1.10 1.12 1.16 1.15 1.13 1.14
0.47 0.46 0.44 0.44 0.43 0.41 0.42 0.43 0.43 0.43 0.44 0.44 0.44 0.45 0.47 0.49 0.57 0.68 0.76 0.77 0.80 0.79 0.80 0.79 0.78 0.69 0.52 0.34 0.37 0.40 0.34 0.46 0.47 0.54 0.61 0.64 0.59 0.59 0.59 0.58 0.55 0.53 0.47 0.41 0.36 0.44 0.46 0.52 0.56 0.49 0.39 0.46 0.47 0.41 0.55 0.60 0.57 0.56 0.57 0.56 0.56 0.56 0.57 0.66 0.68 0.70 0.67 0.65 0.65 0.62 0.45 0.50 0.62 0.74 0.81 0.95 1.07 1.06 1.06 1.04 1.09 1.13 1.12 1.12 1.14 1.17 1.16 1.16
0.46 0.45 0.44 0.43 0.42 0.41 0.41 0.42 0.41 0.39 0.39 0.40 0.41 0.43 0.46 0.49 0.62 0.67 0.72 0.75 0.78 0.79 0.82 0.82 0.79 0.65 0.51 0.37 0.37 0.35 0.33 0.41 0.44 0.40 0.42 0.35 0.29 0.35 0.49 0.59 0.58 0.56 0.55 0.54 0.55 0.57 0.53 0.59 0.57 0.45 0.45 0.43 0.42 0.58 0.49 0.54 0.56 0.47 0.51 0.53 0.48 0.47 0.49 0.64 0.63 0.66 0.61 0.64 0.63 0.60 0.45 0.48 0.57 0.78 0.83 0.95 1.03 1.00 0.98 1.04 1.07 1.12 1.13 1.11 1.11 1.17 1.17 1.14
0.44 0.43 0.43 0.42 0.42 0.41 0.39 0.40 0.39 0.37 0.37 0.37 0.38 0.40 0.44 0.51 0.64 0.69 0.72 0.73 0.78 0.81 0.83 0.85 0.77 0.58 0.42 0.40 0.44 0.41 0.36 0.31 0.28 0.32 0.43 0.33 0.28 0.29 0.36 0.52 0.54 0.55 0.58 0.57 0.53 0.56 0.54 0.51 0.46 0.36 0.37 0.48 0.51 0.46 0.40 0.43 0.48 0.48 0.44 0.40 0.46 0.44 0.48 0.57 0.61 0.63 0.56 0.62 0.63 0.57 0.46 0.48 0.52 0.82 0.83 0.92 0.99 1.01 0.98 1.03 1.08 1.12 1.12 1.12 1.10 1.12 1.16 1.15
0.42 0.41 0.41 0.41 0.41 0.39 0.39 0.39 0.37 0.36 0.35 0.35 0.34 0.38 0.43 0.55 0.63 0.68 0.71 0.73 0.76 0.79 0.81 0.68 0.64 0.61 0.48 0.37 0.41 0.66 0.43 0.27 0.23 0.26 0.36 0.36 0.30 0.27 0.37 0.43 0.51 0.53 0.55 0.46 0.54 0.56 0.52 0.48 0.36 0.37 0.42 0.46 0.38 0.36 0.37 0.37 0.39 0.44 0.41 0.40 0.42 0.44 0.46 0.49 0.56 0.61 0.60 0.55 0.63 0.57 0.47 0.51 0.56 0.80 0.87 0.88 0.93 0.99 0.99 1.03 1.07 1.11 1.14 1.16 1.12 1.11 1.14 1.17
0.42 0.41 0.40 0.40 0.40 0.38 0.36 0.36 0.35 0.35 0.34 0.33 0.33 0.35 0.44 0.54 0.60 0.66 0.72 0.73 0.74 0.78 0.75 0.61 0.60 0.64 0.36 0.43 0.54 0.39 0.38 0.36 0.36 0.28 0.26 0.31 0.30 0.28 0.37 0.40 0.39 0.40 0.47 0.43 0.39 0.46 0.42 0.39 0.41 0.42 0.42 0.35 0.32 0.34 0.30 0.29 0.30 0.34 0.41 0.39 0.44 0.42 0.45 0.44 0.49 0.55 0.56 0.54 0.52 0.60 0.52 0.52 0.64 0.85 0.90 0.87 0.90 0.95 0.99 1.05 1.08 1.12 1.14 1.17 1.15 1.11 1.12 1.14
0.43 0.41 0.40 0.40 0.40 0.38 0.36 0.35 0.34 0.34 0.33 0.31 0.31 0.33 0.40 0.48 0.61 0.65 0.66 0.70 0.75 0.72 0.71 0.74 0.60 0.58 0.42 0.48 0.35 0.33 0.39 0.38 0.37 0.38 0.32 0.28 0.29 0.28 0.39 0.35 0.37 0.37 0.35 0.37 0.44 0.38 0.45 0.36 0.44 0.29 0.32 0.31 0.29 0.27 0.23 0.20 0.26 0.29 0.32 0.35 0.38 0.45 0.46 0.45 0.44 0.51 0.54 0.54 0.50 0.54 0.55 0.55 0.59 0.78 0.85 0.82 0.86 0.91 0.96 1.07 1.12 1.13 1.15 1.17 1.15 1.12 1.11 1.12
0.42 0.40 0.40 0.40 0.39 0.38 0.36 0.35 0.34 0.34 0.33 0.31 0.31 0.36 0.41 0.51 0.55 0.60 0.54 0.59 0.46 0.46 0.34 0.41 0.43 0.31 0.29 0.41 0.44 0.43 0.42 0.48 0.47 0.41 0.36 0.34 0.29 0.30 0.40 0.39 0.39 0.34 0.29 0.29 0.32 0.36 0.42 0.35 0.38 0.27 0.19 0.19 0.21 0.23 0.22 0.26 0.30 0.30 0.31 0.34 0.38 0.39 0.43 0.45 0.50 0.50 0.50 0.46 0.47 0.49 0.49 0.54 0.61 0.67 0.84 0.82 0.83 0.86 0.94 1.08 1.17 1.19 1.19 1.19 1.17 1.15 1.12 1.12
0.43 0.40 0.39 0.39 0.38 0.37 0.36 0.35 0.34 0.34 0.33 0.31 0.28 0.32 0.40 0.21 0.26 0.40 0.44 0.38 0.28 0.26 0.30 0.35 0.47 0.44 0.49 0.46 0.43 0.47 0.53 0.51 0.41 0.37 0.41 0.39 0.29 0.32 0.34 0.40 0.38 0.36 0.29 0.22 0.28 0.30 0.37 0.23 0.22 0.17 0.18 0.20 0.20 0.23 0.25 0.28 0.27 0.27 0.28 0.31 0.36 0.39 0.43 0.49 0.49 0.48 0.51 0.47 0.45 0.46 0.48 0.50 0.53 0.56 0.78 0.84 0.81 0.82 0.90 1.00 1.09 1.15 1.16 1.16 1.16 1.15 1.16 1.13
0.43 0.41 0.39 0.38 0.37 0.36 0.35 0.35 0.35 0.34 0.35 0.34 0.32 0.22 0.17 0.19 0.14 0.14 0.19 0.19 0.23 0.25 0.25 0.26 0.32 0.39 0.41 0.51 0.52 0.46 0.40 0.41 0.43 0.41 0.41 0.42 0.32 0.30 0.31 0.36 0.34 0.27 0.28 0.26 0.27 0.31 0.32 0.20 0.20 0.20 0.19 0.22 0.21 0.22 0.24 0.23 0.24 0.25 0.26 0.26 0.31 0.36 0.37 0.46 0.48 0.50 0.51 0.46 0.44 0.46 0.45 0.49 0.53 0.55 0.61 0.83 0.77 0.74 0.82 0.93 1.02 1.09 1.14 1.16 1.15 1.17 1.18 1.20
0.43 0.41 0.40 0.37 0.37 0.36 0.35 0.35 0.34 0.35 0.36 0.39 0.30 0.23 0.27 0.29 0.32 0.33 0.29 0.15 0.19 0.24 0.25 0.24 0.28 0.30 0.38 0.45 0.55 0.54 0.47 0.40 0.39 0.43 0.49 0.41 0.32 0.25 0.30 0.29 0.29 0.23 0.30 0.28 0.30 0.25 0.22 0.16 0.18 0.23 0.22 0.24 0.23 0.21 0.21 0.20 0.20 0.23 0.23 0.25 0.27 0.29 0.35 0.44 0.48 0.48 0.50 0.47 0.43 0.46 0.43 0.46 0.49 0.52 0.57 0.75 0.75 0.75 0.81 0.90 0.99 1.04 1.09 1.14 1.17 1.18 1.22 1.24
0.44 0.41 0.39 0.38 0.37 0.36 0.36 0.35 0.34 0.34 0.35 0.30 0.25 0.27 0.26 0.36 0.43 0.42 0.34 0.24 0.18 0.21 0.21 0.21 0.22 0.24 0.28 0.36 0.43 0.51 0.40 0.37 0.35 0.40 0.45 0.43 0.34 0.27 0.30 0.26 0.27 0.25 0.29 0.27 0.23 0.22 0.18 0.18 0.21 0.24 0.25 0.22 0.21 0.23 0.21 0.19 0.20 0.18 0.19 0.21 0.20 0.27 0.30 0.30 0.41 0.47 0.48 0.46 0.43 0.45 0.42 0.43 0.48 0.51 0.59 0.73 0.77 0.78 0.79 0.89 1.02 1.07 1.04 1.05 1.10 1.16 1.19 1.21
0.44 0.42 0.39 0.37 0.37 0.36 0.33 0.35 0.35 0.33 0.32 0.31 0.28 0.28 0.37 0.40 0.42 0.40 0.31 0.20 0.15 0.16 0.19 0.23 0.25 0.24 0.26 0.27 0.37 0.40 0.39 0.39 0.40 0.37 0.48 0.44 0.34 0.31 0.33 0.27 0.26 0.26 0.26 0.25 0.26 0.23 0.16 0.21 0.24 0.23 0.24 0.22 0.22 0.23 0.19 0.16 0.14 0.15 0.16 0.17 0.19 0.23 0.27 0.30 0.38 0.41 0.44 0.44 0.45 0.44 0.40 0.40 0.43 0.44 0.48 0.61 0.75 0.76 0.76 0.82 0.95 1.07 1.11 1.15 1.20 1.22 1.23 1.20
0.44 0.42 0.41 0.38 0.35 0.38 0.33 0.36 0.31 0.26 0.32 0.33 0.29 0.33 0.38 0.41 0.41 0.42 0.26 0.24 0.25 0.19 0.30 0.25 0.28 0.27 0.30 0.39 0.37 0.33 0.37 0.41 0.41 0.44 0.46 0.44 0.38 0.32 0.30 0.33 0.29 0.23 0.24 0.27 0.27 0.26 0.23 0.27 0.29 0.23 0.21 0.24 0.22 0.18 0.16 0.16 0.14 0.14 0.14 0.15 0.18 0.22 0.23 0.27 0.35 0.36 0.36 0.38 0.43 0.41 0.33 0.32 0.40 0.43 0.45 0.54 0.76 0.73 0.74 0.73 0.79 0.93 1.04 1.13 1.13 1.15 1.21 1.25
0.44 0.41 0.40 0.39 0.36 0.36 0.35 0.34 0.25 0.29 0.31 0.26 0.27 0.33 0.36 0.40 0.44 0.40 0.34 0.17 0.11 0.15 0.23 0.18 0.32 0.25 0.35 0.28 0.32 0.32 0.38 0.31 0.42 0.45 0.45 0.45 0.48 0.35 0.35 0.30 0.29 0.23 0.24 0.28 0.27 0.25 0.24 0.31 0.30 0.24 0.22 0.22 0.21 0.16 0.18 0.17 0.14 0.13 0.14 0.17 0.17 0.20 0.21 0.23 0.27 0.29 0.28 0.29 0.39 0.43 0.32 0.28 0.39 0.41 0.45 0.50 0.71 0.73 0.76 0.71 0.75 0.84 0.94 1.03 1.07 1.12 1.16 1.19
0.44 0.41 0.39 0.39 0.38 0.38 0.24 0.19 0.31 0.32 0.22 0.23 0.30 0.35 0.36 0.38 0.50 0.41 0.24 0.15 0.11 0.21 0.19 0.28 0.29 0.30 0.36 0.33 0.32 0.33 0.21 0.25 0.41 0.45 0.43 0.47 0.39 0.46 0.32 0.28 0.29 0.29 0.30 0.31 0.27 0.22 0.27 0.29 0.31 0.28 0.25 0.22 0.19 0.16 0.18 0.20 0.14 0.12 0.17 0.19 0.19 0.17 0.18 0.20 0.24 0.25 0.25 0.31 0.37 0.40 0.37 0.31 0.31 0.37 0.48 0.55 0.68 0.70 0.70 0.71 0.75 0.81 0.86 0.93 1.01 1.07 1.12 1.17
0.44 0.41 0.39 0.38 0.36 0.38 0.29 0.32 0.30 0.24 0.23 0.29 0.34 0.35 0.38 0.40 0.44 0.41 0.22 0.07 0.08 0.26 0.22 0.26 0.29 0.37 0.34 0.34 0.36 0.28 0.27 0.33 0.30 0.37 0.44 0.47 0.43 0.40 0.35 0.29 0.26 0.25 0.29 0.28 0.18 0.26 0.28 0.25 0.28 0.26 0.24 0.21 0.17 0.17 0.20 0.22 0.16 0.14 0.17 0.20 0.20 0.18 0.17 0.19 0.20 0.20 0.23 0.25 0.25 0.31 0.35 0.29 0.26 0.33 0.43 0.45 0.52 0.63 0.63 0.67 0.74 0.76 0.83 0.89 0.95 1.03 1.09 1.15
0.43 0.42 0.39 0.37 0.36 0.36 0.39 0.32 0.30 0.25 0.29 0.32 0.33 0.35 0.37 0.45 0.35 0.26 0.19 0.09 0.23 0.20 0.35 0.24 0.38 0.33 0.33 0.34 0.32 0.32 0.31 0.33 0.25 0.37 0.43 0.45 0.43 0.40 0.31 0.34 0.32 0.28 0.28 0.28 0.23 0.28 0.30 0.28 0.29 0.29 0.24 0.19 0.20 0.22 0.22 0.22 0.17 0.17 0.21 0.24 0.21 0.20 0.18 0.16 0.15 0.16 0.19 0.20 0.17 0.24 0.30 0.25 0.23 0.31 0.35 0.39 0.43 0.51 0.58 0.66 0.73 0.77 0.78 0.84 0.88 0.95 1.03 1.11
0.42 0.40 0.40 0.37 0.34 0.36 0.34 0.34 0.34 0.36 0.33 0.31 0.32 0.35 0.39 0.39 0.32 0.13 0.13 0.08 0.23 0.17 0.23 0.25 0.26 0.26 0.34 0.29 0.28 0.31 0.29 0.29 0.30 0.32 0.40 0.37 0.39 0.41 0.40 0.40 0.35 0.31 0.26 0.29 0.29 0.27 0.28 0.35 0.35 0.31 0.24 0.21 0.23 0.26 0.25 0.24 0.22 0.23 0.21 0.20 0.18 0.17 0.15 0.15 0.14 0.15 0.15 0.13 0.15 0.20 0.25 0.26 0.19 0.25 0.32 0.34 0.41 0.47 0.52 0.61 0.75 0.82 0.79 0.79 0.84 0.91 0.96 1.02
0.42 0.40 0.38 0.39 0.29 0.30 0.32 0.26 0.28 0.31 0.32 0.32 0.31 0.32 0.37 0.32 0.17 0.12 0.08 0.13 0.16 0.24 0.26 0.26 0.25 0.29 0.27 0.26 0.24 0.30 0.30 0.31 0.29 0.31 0.32 0.39 0.37 0.37 0.36 0.33 0.38 0.35 0.28 0.26 0.27 0.25 0.27 0.31 0.30 0.31 0.30 0.27 0.26 0.25 0.27 0.28 0.27 0.23 0.21 0.18 0.16 0.15 0.16 0.15 0.15 0.16 0.11 0.09 0.15 0.19 0.21 0.24 0.18 0.17 0.29 0.35 0.40 0.50 0.55 0.53 0.64 0.81 0.78 0.74 0.78 0.84 0.94 1.02
0.41 0.39 0.38 0.36 0.35 0.38 0.25 0.21 0.29 0.34 0.32 0.31 0.28 0.25 0.29 0.15 0.16 0.09 0.10 0.20 0.10 0.24 0.23 0.24 0.27 0.28 0.26 0.28 0.25 0.26 0.26 0.29 0.30 0.29 0.29 0.32 0.31 0.30 0.29 0.25 0.28 0.25 0.23 0.23 0.22 0.25 0.21 0.25 0.30 0.30 0.31 0.27 0.24 0.21 0.24 0.25 0.25 0.22 0.20 0.17 0.13 0.13 0.13 0.11 0.13 0.10 0.09 0.08 0.12 0.15 0.16 0.16 0.16 0.17 0.29 0.33 0.35 0.42 0.54 0.56 0.57 0.76 0.82 0.76 0.73 0.77 0.87 0.98
0.40 0.38 0.38 0.40 0.39 0.36 0.33 0.33 0.35 0.34 0.33 0.27 0.22 0.26 0.19 0.11 0.09 0.14 0.11 0.16 0.19 0.27 0.26 0.28 0.25 0.25 0.26 0.25 0.24 0.26 0.27 0.24 0.29 0.28 0.31 0.33 0.32 0.32 0.33 0.31 0.32 0.28 0.22 0.26 0.24 0.22 0.20 0.26 0.29 0.27 0.28 0.28 0.25 0.19 0.20 0.19 0.20 0.20 0.18 0.16 0.13 0.12 0.12 0.09 0.09 0.11 0.11 0.13 0.13 0.15 0.16 0.12 0.14 0.18 0.25 0.29 0.34 0.44 0.51 0.56 0.58 0.60 0.76 0.82 0.74 0.76 0.81 0.90
0.38 0.38 0.36 0.38 0.37 0.37 0.37 0.37 0.34 0.34 0.29 0.24 0.19 0.18 0.14 0.08 0.09 0.22 0.18 0.28 0.25 0.31 0.30 0.25 0.25 0.25 0.26 0.23 0.25 0.26 0.23 0.26 0.26 0.27 0.29 0.29 0.32 0.29 0.31 0.33 0.34 0.31 0.30 0.30 0.24 0.23 0.18 0.18 0.22 0.25 0.21 0.27 0.24 0.22 0.21 0.20 0.19 0.19 0.20 0.17 0.15 0.14 0.13 0.10 0.10 0.09 0.09 0.11 0.15 0.15 0.12 0.10 0.11 0.13 0.20 0.23 0.30 0.38 0.48 0.54 0.58 0.60 0.63 0.79 0.82 0.77 0.78 0.84
0.37 0.39 0.37 0.38 0.38 0.40 0.36 0.35 0.35 0.35 0.30 0.21 0.16 0.10 0.08 0.08 0.10 0.11 0.21 0.29 0.27 0.25 0.22 0.28 0.22 0.22 0.22 0.24 0.26 0.29 0.28 0.23 0.26 0.26 0.26 0.27 0.27 0.30 0.29 0.30 0.33 0.34 0.32 0.26 0.28 0.26 0.21 0.20 0.24 0.28 0.27 0.26 0.23 0.25 0.25 0.24 0.21 0.20 0.19 0.19 0.17 0.15 0.18 0.14 0.15 0.11 0.11 0.12 0.12 0.15 0.10 0.11 0.11 0.20 0.28 0.28 0.28 0.35 0.42 0.46 0.50 0.53 0.57 0.61 0.79 0.76 0.75 0.80
0.37 0.33 0.35 0.34 0.32 0.34 0.35 0.38 0.37 0.36 0.28 0.19 0.12 0.09 0.07 0.09 0.11 0.28 0.25 0.33 0.28 0.22 0.21 0.20 0.21 0.20 0.21 0.22 0.26 0.28 0.32 0.27 0.26 0.26 0.25 0.27 0.30 0.30 0.34 0.34 0.33 0.34 0.31 0.25 0.30 0.23 0.25 0.21 0.27 0.28 0.28 0.26 0.25 0.25 0.24 0.26 0.16 0.20 0.18 0.14 0.15 0.20 0.17 0.15 0.15 0.18 0.18 0.16 0.12 0.16 0.14 0.13 0.15 0.19 0.25 0.24 0.25 0.32 0.38 0.43 0.47 0.50 0.56 0.59 0.67 0.77 0.76 0.77
0.33 0.35 0.30 0.32 0.32 0.35 0.38 0.41 0.41 0.35 0.27 0.18 0.12 0.08 0.16 0.20 0.24 0.23 0.30 0.25 0.25 0.22 0.20 0.15 0.21 0.20 0.23 0.25 0.26 0.28 0.29 0.28 0.26 0.26 0.22 0.26 0.26 0.34 0.34 0.36 0.39 0.36 0.36 0.34 0.29 0.33 0.24 0.24 0.30 0.28 0.24 0.27 0.29 0.27 0.26 0.26 0.25 0.23 0.15 0.15 0.19 0.21 0.20 0.16 0.11 0.15 0.12 0.09 0.09 0.12 0.11 0.13 0.11 0.07 0.12 0.17 0.19 0.24 0.31 0.37 0.42 0.49 0.55 0.61 0.66 0.73 0.76 0.77
0.34 0.32 0.36 0.35 0.31 0.36 0.41 0.43 0.41 0.37 0.26 0.18 0.13 0.11 0.17 0.16 0.28 0.25 0.29 0.27 0.24 0.22 0.17 0.18 0.21 0.26 0.25 0.25 0.25 0.28 0.29 0.26 0.27 0.25 0.23 0.25 0.25 0.35 0.35 0.35 0.40 0.40 0.42 0.43 0.33 0.31 0.31 0.25 0.28 0.30 0.27 0.27 0.30 0.28 0.25 0.27 0.27 0.22 0.19 0.21 0.16 0.13 0.12 0.17 0.16 0.10 0.11 0.09 0.08 0.09 0.10 0.10 0.12 0.10 0.17 0.15 0.16 0.20 0.25 0.32 0.38 0.43 0.50 0.55 0.62 0.68 0.73 0.77
0.36 0.31 0.26 0.29 0.34 0.37 0.41 0.40 0.40 0.39 0.29 0.21 0.15 0.15 0.21 0.27 0.28 0.25 0.29 0.28 0.27 0.23 0.16 0.17 0.19 0.28 0.29 0.25 0.29 0.29 0.30 0.25 0.29 0.27 0.24 0.24 0.24 0.34 0.32 0.37 0.36 0.42 0.44 0.42 0.34 0.36 0.35 0.25 0.28 0.33 0.29 0.29 0.28 0.26 0.19 0.22 0.27 0.26 0.27 0.22 0.21 0.19 0.15 0.13 0.13 0.13 0.12 0.11 0.11 0.09 0.10 0.09 0.15 0.13 0.14 0.20 0.21 0.23 0.26 0.28 0.32 0.36 0.44 0.52 0.58 0.63 0.69 0.73
0.31 0.27 0.24 0.32 0.35 0.38 0.42 0.39 0.36 0.32 0.26 0.19 0.23 0.24 0.32 0.23 0.26 0.29 0.26 0.28 0.23 0.22 0.21 0.21 0.26 0.24 0.27 0.27 0.29 0.26 0.31 0.30 0.28 0.28 0.27 0.31 0.27 0.35 0.32 0.38 0.37 0.40 0.44 0.44 0.38 0.39 0.33 0.34 0.26 0.31 0.34 0.31 0.23 0.24 0.21 0.23 0.21 0.22 0.21 0.19 0.20 0.19 0.21 0.19 0.19 0.13 0.12 0.11 0.10 0.10 0.09 0.12 0.16 0.18 0.13 0.14 0.21 0.23 0.23 0.24 0.28 0.33 0.40 0.49 0.56 0.59 0.65 0.72
0.36 0.31 0.28 0.34 0.37 0.38 0.39 0.36 0.28 0.23 0.20 0.25 0.27 0.24 0.24 0.21 0.25 0.26 0.28 0.30 0.27 0.29 0.23 0.21 0.22 0.24 0.26 0.25 0.24 0.31 0.30 0.30 0.30 0.28 0.28 0.27 0.30 0.26 0.35 0.35 0.38 0.38 0.44 0.41 0.37 0.37 0.32 0.33 0.26 0.30 0.29 0.26 0.25 0.28 0.26 0.27 0.26 0.22 0.20 0.19 0.20 0.18 0.16 0.14 0.14 0.20 0.15 0.12 0.11 0.11 0.09 0.14 0.19 0.20 0.17 0.15 0.17 0.22 0.22 0.22 0.26 0.32 0.36 0.43 0.51 0.58 0.65 0.71
0.29 0.20 0.22 0.37 0.40 0.39 0.33 0.23 0.24 0.28 0.23 0.22 0.22 0.24 0.22 0.28 0.25 0.26 0.27 0.30 0.31 0.29 0.35 0.27 0.24 0.22 0.22 0.24 0.26 0.30 0.30 0.30 0.31 0.30 0.29 0.28 0.34 0.34 0.36 0.40 0.39 0.43 0.42 0.34 0.34 0.42 0.42 0.39 0.32 0.27 0.28 0.28 0.29 0.32 0.32 0.31 0.30 0.26 0.24 0.20 0.22 0.20 0.19 0.18 0.13 0.17 0.18 0.14 0.15 0.13 0.11 0.13 0.21 0.20 0.19 0.16 0.16 0.16 0.18 0.21 0.22 0.27 0.33 0.38 0.45 0.50 0.64 0.71
0.28 0.24 0.37 0.42 0.42 0.39 0.30 0.23 0.26 0.25 0.25 0.28 0.31 0.27 0.27 0.26 0.24 0.27 0.25 0.30 0.24 0.32 0.30 0.28 0.27 0.25 0.25 0.26 0.28 0.29 0.31 0.29 0.33 0.32 0.35 0.35 0.35 0.36 0.39 0.40 0.42 0.43 0.47 0.47 0.47 0.43 0.45 0.36 0.32 0.30 0.33 0.33 0.33 0.34 0.34 0.32 0.30 0.26 0.24 0.23 0.22 0.19 0.20 0.19 0.17 0.20 0.18 0.16 0.12 0.12 0.10 0.14 0.22 0.23 0.20 0.18 0.17 0.15 0.16 0.17 0.20 0.24 0.28 0.33 0.38 0.47 0.62 0.79
0.31 0.30 0.35 0.44 0.44 0.39 0.29 0.19 0.21 0.23 0.26 0.29 0.26 0.25 0.28 0.26 0.26 0.26 0.26 0.29 0.29 0.30 0.28 0.31 0.34 0.34 0.30 0.34 0.32 0.28 0.31 0.25 0.32 0.34 0.34 0.38 0.35 0.41 0.40 0.40 0.43 0.42 0.41 0.43 0.42 0.46 0.33 0.34 0.34 0.29 0.29 0.29 0.28 0.30 0.30 0.31 0.29 0.25 0.24 0.24 0.24 0.24 0.24 0.22 0.21 0.21 0.18 0.18 0.16 0.12 0.09 0.14 0.21 0.24 0.22 0.18 0.17 0.16 0.16 0.18 0.21 0.25 0.29 0.34 0.41 0.54 0.59 0.63
0.33 0.36 0.34 0.36 0.41 0.38 0.26 0.29 0.27 0.26 0.26 0.26 0.24 0.23 0.24 0.26 0.29 0.29 0.27 0.27 0.34 0.32 0.31 0.30 0.34 0.38 0.33 0.33 0.30 0.31 0.32 0.31 0.32 0.37 0.39 0.39 0.37 0.42 0.41 0.41 0.42 0.42 0.44 0.47 0.48 0.47 0.38 0.37 0.33 0.27 0.22 0.20 0.18 0.18 0.19 0.21 0.22 0.25 0.27 0.27 0.26 0.24 0.24 0.22 0.17 0.20 0.18 0.20 0.19 0.14 0.13 0.18 0.28 0.25 0.24 0.21 0.19 0.17 0.17 0.18 0.19 0.19 0.23 0.30 0.44 0.49 0.50 0.51
0.29 0.23 0.26 0.32 0.35 0.37 0.34 0.36 0.34 0.29 0.28 0.28 0.24 0.25 0.27 0.23 0.28 0.31 0.31 0.28 0.33 0.32 0.30 0.33 0.39 0.38 0.35 0.35 0.28 0.25 0.27 0.33 0.30 0.32 0.37 0.35 0.38 0.41 0.42 0.41 0.41 0.43 0.43 0.45 0.45 0.44 0.40 0.43 0.40 0.34 0.31 0.27 0.29 0.36 0.37 0.33 0.26 0.22 0.23 0.26 0.27 0.26 0.25 0.24 0.22 0.19 0.18 0.19 0.17 0.18 0.19 0.19 0.21 0.22 0.19 0.20 0.21 0.19 0.19 0.19 0.20 0.23 0.26 0.32 0.34 0.37 0.40 0.41
0.36 0.26 0.26 0.23 0.29 0.37 0.29 0.34 0.30 0.32 0.29 0.31 0.24 0.27 0.25 0.26 0.28 0.27 0.33 0.24 0.33 0.30 0.30 0.35 0.34 0.32 0.36 0.35 0.32 0.31 0.31 0.30 0.34 0.33 0.34 0.37 0.42 0.42 0.43 0.41 0.41 0.44 0.43 0.42 0.44 0.43 0.40 0.35 0.38 0.38 0.39 0.42 0.41 0.39 0.36 0.32 0.29 0.25 0.24 0.24 0.27 0.27 0.25 0.23 0.20 0.18 0.24 0.21 0.15 0.19 0.23 0.19 0.21 0.22 0.22 0.22 0.22 0.21 0.21 0.22 0.24 0.26 0.34 0.30 0.34 0.37 0.35 0.42
0.28 0.32 0.36 0.38 0.28 0.24 0.25 0.27 0.30 0.31 0.32 0.31 0.27 0.30 0.28 0.26 0.26 0.24 0.29 0.31 0.31 0.32 0.28 0.36 0.37 0.34 0.37 0.36 0.36 0.28 0.29 0.30 0.32 0.29 0.35 0.38 0.41 0.42 0.38 0.41 0.39 0.42 0.42 0.39 0.43 0.42 0.39 0.32 0.38 0.36 0.35 0.38 0.39 0.38 0.37 0.34 0.32 0.32 0.28 0.25 0.24 0.25 0.25 0.22 0.22 0.23 0.23 0.20 0.18 0.24 0.23 0.22 0.21 0.23 0.25 0.25 0.23 0.22 0.20 0.19 0.22 0.38 0.28 0.28 0.28 0.29 0.35 0.39
0.40 0.38 0.39 0.41 0.29 0.29 0.31 0.30 0.32 0.31 0.29 0.30 0.28 0.29 0.27 0.26 0.25 0.28 0.27 0.28 0.29 0.29 0.34 0.25 0.29 0.34 0.35 0.39 0.36 0.30 0.33 0.25 0.24 0.35 0.37 0.36 0.37 0.37 0.33 0.37 0.40 0.43 0.41 0.39 0.40 0.42 0.37 0.34 0.41 0.37 0.33 0.34 0.35 0.37 0.37 0.34 0.32 0.31 0.29 0.29 0.28 0.25 0.24 0.24 0.24 0.24 0.23 0.23 0.26 0.27 0.30 0.28 0.27 0.24 0.25 0.24 0.26 0.26 0.25 0.27 0.29 0.23 0.27 0.31 0.28 0.29 0.32 0.37
0.37 0.36 0.34 0.40 0.37 0.34 0.32 0.32 0.30 0.29 0.25 0.29 0.25 0.29 0.27 0.26 0.25 0.27 0.29 0.28 0.25 0.28 0.34 0.29 0.30 0.32 0.34 0.37 0.37 0.31 0.33 0.36 0.35 0.32 0.38 0.37 0.36 0.36 0.35 0.39 0.39 0.45 0.42 0.37 0.37 0.41 0.35 0.35 0.38 0.35 0.31 0.31 0.33 0.34 0.35 0.34 0.33 0.31 0.31 0.30 0.28 0.27 0.27 0.25 0.25 0.24 0.24 0.24 0.24 0.25 0.25 0.27 0.35 0.33 0.30 0.29 0.27 0.27 0.26 0.25 0.22 0.22 0.25 0.27 0.30 0.27 0.28 0.34
0.48 0.53 0.49 0.38 0.30 0.31 0.32 0.31 0.29 0.28 0.25 0.28 0.26 0.27 0.27 0.27 0.26 0.30 0.29 0.34 0.32 0.30 0.33 0.31 0.33 0.32 0.34 0.35 0.36 0.35 0.38 0.37 0.38 0.38 0.40 0.40 0.32 0.41 0.38 0.39 0.44 0.38 0.39 0.37 0.38 0.37 0.36 0.32 0.36 0.33 0.29 0.28 0.33 0.32 0.32 0.32 0.32 0.31 0.30 0.30 0.29 0.27 0.24 0.25 0.25 0.26 0.24 0.22 0.23 0.24 0.22 0.23 0.30 0.32 0.32 0.29 0.29 0.27 0.26 0.27 0.26 0.24 0.23 0.23 0.24 0.28 0.29 0.36
0.55 0.57 0.55 0.46 0.32 0.34 0.31 0.32 0.30 0.27 0.23 0.28 0.27 0.28 0.28 0.28 0.30 0.32 0.28 0.36 0.37 0.39 0.36 0.33 0.33 0.32 0.32 0.33 0.35 0.38 0.43 0.42 0.42 0.43 0.43 0.42 0.43 0.42 0.42 0.41 0.41 0.38 0.37 0.37 0.40 0.35 0.35 0.32 0.30 0.31 0.27 0.28 0.32 0.33 0.31 0.31 0.30 0.26 0.25 0.28 0.29 0.30 0.29 0.29 0.29 0.28 0.27 0.27 0.23 0.22 0.23 0.29 0.30 0.32 0.32 0.30 0.28 0.27 0.27 0.26 0.25 0.25 0.25 0.26 0.28 0.33 0.36 0.33
Wind_Speed
17 18 18 18 18 18 18 18 17 17 17 17 17 17 17 17 17 17 16 16 15 15 15 15 15 15 15 15 14 14 14 14 14 13 14 14 13 13 14 14 16 17 18 17 16 17 17 16 16 15 13 12 11 10 10 10 8 7 6 6 5 5 3 3 3 2 2 1 1 2 4 4 3 3 3 2 3 3 5 4 5 6 5 6 10 14 16 16
18 18 18 18 18 18 18 18 18 18 18 18 18 18 18 18 18 17 17 16 16 15 15 15 15 15 15 15 14 14 14 14 15 16 17 16 15 14 15 16 18 19 18 18 18 18 18 17 17 16 14 12 11 11 11 10 10 8 7 7 6 5 4 4 3 3 2 0 1 1 3 4 3 4 4 3 3 4 5 5 6 7 6 7 11 15 16 17
18 18 19 19 19 19 19 19 19 19 19 19 19 19 18 18 18 18 17 17 16 16 15 15 14 14 14 14 14 14 14 14 15 16 16 15 15 15 16 18 19 20 20 19 19 19 18 18 18 17 15 13 11 11 11 10 10 9 8 7 7 5 5 6 5 3 2 1 1 1 2 3 3 4 4 3 3 4 4 5 7 8 8 9 12 14 16 17
19 19 19 19 19 19 19 19 19 19 20 20 20 20 19 19 19 19 18 18 17 16 16 15 15 14 14 13 13 13 13 14 14 13 11 11 12 13 16 18 20 21 20 19 20 20 19 19 19 18 16 14 13 12 12 11 10 9 9 8 6 6 6 7 6 5 3 2 1 1 2 2 3 3 4 3 3 4 4 6 8 8 10 11 12 14 16 16
19 20 20 20 20 20 20 20 20 20 21 21 21 21 20 20 20 19 19 18 17 17 16 15 15 14 13 13 13 12 11 12 11 10 10 9 10 11 14 17 20 21 20 20 20 20 20 19 19 18 16 14 13 13 13 13 11 10 10 10 8 7 7 7 6 5 4 3 2 2 2 2 3 3 4 5 4 2 3 5 7 9 11 12 13 14 15 16
20 20 20 21 21 21 21 21 21 21 22 22 21 21 21 21 21 20 19 19 18 18 17 16 15 14 13 13 12 11 11 10 8 9 10 10 10 11 13 16 19 21 21 20 20 20 21 20 20 19 17 15 15 14 13 14 13 11 11 11 11 11 9 7 7 6 5 5 4 3 3 3 4 3 4 6 6 3 2 5 6 8 10 12 14 14 15 16
20 21 21 21 21 22 22 22 22 22 22 22 22 22 22 22 21 21 20 20 19 18 18 17 16 15 14 12 12 12 13 14 12 10 11 11 11 12 14 16 19 21 21 22 22 22 22 22 22 20 18 16 16 15 14 14 15 13 11 12 12 12 12 10 8 7 7 6 6 5 5 5 5 4 4 6 7 5 3 5 7 8 9 11 13 14 15 16
21 21 22 22 22 22 22 23 23 23 23 23 23 23 22 22 22 21 21 20 20 19 18 17 16 15 14 13 12 12 13 16 15 13 13 13 13 13 14 17 19 21 22 23 23 23 23 23 23 20 19 18 16 16 15 14 15 15 13 12 12 12 12 11 10 9 9 8 7 7 7 6 6 5 5 6 7 6 5 6 8 9 9 10 13 14 14 15
22 22 22 22 23 23 23 23 24 24 24 24 23 23 22 22 22 21 21 21 20 19 18 18 17 15 14 13 13 12 13 14 14 15 15 15 15 14 15 17 20 22 22 23 23 24 23 23 24 21 19 18 17 17 17 15 13 15 16 14 13 13 13 12 12 11 10 8 7 7 8 7 7 6 5 6 7 7 7 8 9 10 10 10 12 14 14 15
23 23 23 23 23 24 24 24 24 24 24 24 24 23 23 22 22 21 21 20 19 19 18 18 17 15 15 14 13 12 11 12 12 13 15 15 15 16 16 17 19 22 23 24 24 25 24 23 24 22 19 19 18 17 18 17 13 12 15 15 15 14 14 14 13 12 10 9 8 8 8 8 7 7 5 6 8 8 8 9 10 10 10 10 11 13 14 14
24 24 24 24 24 25 25 25 25 25 25 25 24 23 23 23 22 21 20 20 19 18 18 17 17 16 16 15 15 12 11 12 12 11 12 14 15 16 17 17 19 21 23 24 24 25 25 24 24 21 19 19 19 19 19 18 15 14 14 15 16 15 15 15 15 13 11 9 9 9 9 8 8 8 6 6 9 9 9 9 10 10 10 10 11 12 13 14
25 25 25 25 26 26 26 26 26 25 25 25 24 23 23 23 22 20 20 19 18 17 17 17 16 17 17 16 17 15 13 13 13 12 12 12 13 14 15 16 18 20 22 23 24 25 25 24 24 23 19 18 19 19 18 19 18 16 16 16 16 16 16 17 16 14 12 10 9 8 8 9 9 9 8 7 9 10 9 9 10 10 10 10 10 11 12 13
26 26 26 26 27 27 27 27 27 27 26 25 24 23 23 22 21 20 19 18 17 16 16 16 16 17 17 17 17 17 17 15 13 12 12 12 12 13 14 16 18 19 20 22 23 24 25 23 25 25 20 19 19 17 15 17 18 18 17 17 16 16 16 17 17 15 14 12 10 9 8 8 9 10 8 8 10 10 9 10 10 10 10 10 10 10 11 13
27 27 27 27 28 28 28 28 28 28 27 26 25 24 23 22 21 19 18 17 16 16 15 16 16 17 18 18 16 16 17 17 16 15 14 14 13 12 13 15 17 17 18 20 21 23 23 23 24 25 22 21 18 17 17 16 17 17 17 17 16 15 16 16 16 15 14 11 11 11 10 7 7 9 9 8 11 11 10 10 10 10 10 10 11 11 11 13
28 28 28 28 29 29 29 29 29 28 27 26 25 24 23 22 20 19 18 17 16 15 15 15 17 17 17 19 18 17 17 18 19 19 17 16 15 14 14 15 16 16 17 17 19 21 22 23 24 24 23 22 19 18 19 17 16 16 16 17 17 17 16 15 15 16 15 11 12 12 11 8 6 9 10 8 10 11 10 10 10 10 11 11 11 11 11 12
29 29 29 30 30 30 30 29 29 28 27 26 26 25 23 22 21 19 18 17 16 15 15 16 17 18 18 17 16 17 18 19 20 20 20 18 17 15 14 15 16 16 16 16 17 19 21 22 24 24 22 23 22 20 19 19 18 18 18 17 17 18 17 16 15 17 17 13 13 14 12 10 6 9 10 8 10 11 11 11 11 11 11 11 11 11 11 11
30 30 30 31 31 31 31 30 30 29 28 27 26 25 23 22 21 20 19 18 17 17 17 17 17 18 19 17 16 17 19 19 19 19 21 21 20 17 16 16 16 16 17 16 16 18 20 21 22 23 23 22 23 22 21 21 20 19 19 19 18 17 17 16 15 16 17 16 15 15 15 13 9 9 11 9 10 11 11 12 12 12 11 11 11 11 11 11
31 31 31 32 32 32 31 31 30 29 28 28 27 25 23 22 22 21 21 20 19 19 19 18 17 18 19 19 18 16 17 19 18 18 20 21 21 19 18 17 16 17 17 16 17 18 19 20 20 21 23 23 23 24 23 22 21 20 20 20 19 18 18 18 15 14 16 16 16 16 16 15 13 12 12 10 10 11 12 12 12 12 12 12 12 12 11 12
32 32 32 32 33 33 32 32 31 29 29 28 27 25 23 22 23 22 21 21 21 20 20 18 19 19 17 18 19 17 16 17 18 19 19 20 21 21 19 18 17 18 18 17 18 19 19 18 20 21 23 24 25 25 25 22 21 22 21 21 21 20 19 20 17 14 14 15 16 17 17 16 14 13 13 12 11 11 12 12 12 12 13 13 13 13 12 12
33 33 33 33 33 33 33 32 31 30 28 27 26 24 22 22 23 22 21 23 25 25 25 22 23 23 20 18 18 18 19 19 19 20 21 21 21 22 21 19 19 19 19 18 18 19 19 19 20 22 23 24 26 26 25 24 21 21 22 21 22 22 20 20 18 16 16 16 17 17 18 17 16 14 14 14 12 12 12 13 14 13 13 14 14 14 13 13
34 34 34 34 34 34 33 32 31 29 28 25 24 22 21 22 22 23 23 25 26 27 29 28 27 27 26 22 19 17 19 20 20 21 21 22 23 23 22 21 21 20 20 19 18 18 20 20 20 22 23 23 25 26 26 26 24 22 22 21 22 23 22 20 19 17 17 18 17 17 18 18 18 16 16 16 14 13 13 14 15 15 14 14 14 15 14 14
34 34 34 35 35 34 34 32 30 29 27 24 22 21 21 22 23 24 25 26 26 27 29 29 29 29 28 28 25 22 21 21 22 22 22 23 25 25 23 23 23 20 21 21 18 18 19 20 21 21 22 22 22 24 26 27 25 24 23 23 22 22 22 22 21 19 18 18 18 18 19 19 19 17 16 17 16 14 14 15 16 16 16 15 15 15 15 15
35 35 35 35 35 35 34 32 31 29 26 24 23 22 23 24 24 25 26 26 27 28 29 29 29 29 28 29 29 28 26 24 24 24 24 25 27 26 25 25 24 22 22 23 21 19 19 19 22 21 21 22 22 23 25 26 25 25 25 24 23 22 21 21 21 21 20 19 19 19 19 19 19 18 18 18 19 16 15 16 16 17 17 16 16 15 16 16
36 35 35 35 35 35 34 32 30 28 27 25 24 24 25 25 25 25 26 27 27 26 27 28 27 28 28 27 27 30 30 28 26 26 26 27 28 27 27 26 26 24 24 25 25 22 20 17 19 22 22 22 22 22 24 24 24 25 27 26 24 23 23 21 18 18 19 20 20 20 19 20 20 20 20 19 20 19 17 16 16 17 17 17 16 16 17 17
36 36 35 35 34 34 34 30 28 28 28 26 25 26 26 26 26 26 26 27 26 24 24 25 25 25 26 25 26 28 29 30 30 28 28 29 29 27 27 26 26 26 26 27 26 24 22 17 16 22 23 22 22 22 23 23 22 24 27 28 26 24 24 23 20 19 19 20 20 20 20 19 20 22 21 19 19 20 18 17 17 17 17 17 17 17 17 17
37 36 36 35 34 34 32 28 28 29 28 27 27 28 28 27 26 26 25 26 26 23 21 23 23 23 24 25 27 27 28 30 31 30 30 31 31 28 26 26 26 26 26 26 24 23 23 20 18 21 22 22 23 22 23 23 22 22 24 26 28 27 25 24 23 22 22 21 19 20 20 18 19 20 19 19 20 20 19 18 18 17 17 18 18 17 18 18
37 36 36 36 34 33 30 28 29 29 27 27 29 29 28 28 26 25 24 25 25 22 20 22 22 22 23 25 27 27 25 25 28 32 33 31 32 31 28 27 26 27 25 23 24 23 23 23 21 22 22 22 22 21 21 23 22 21 20 22 25 27 27 25 23 23 23 22 21 21 20 20 21 20 18 18 20 20 20 20 19 18 18 18 18 18 19 20
37 37 36 35 35 33 30 29 30 28 27 29 30 29 28 27 26 25 24 24 22 20 20 20 21 22 23 24 27 28 25 22 25 31 34 33 33 32 31 29 28 28 26 25 26 23 23 25 23 23 23 21 21 21 21 23 22 20 18 19 22 24 26 25 24 24 23 23 24 23 22 21 22 22 21 21 22 21 21 21 20 19 19 18 18 18 20 21
38 37 36 36 35 32 30 29 29 28 29 30 30 30 29 27 26 24 24 24 22 21 21 20 21 22 22 23 27 30 28 25 24 26 32 34 34 33 31 30 28 28 30 29 27 23 23 26 25 24 24 22 21 21 21 22 21 20 18 17 19 21 23 24 24 23 23 24 26 25 24 21 21 23 23 23 24 23 22 21 21 21 20 18 18 18 20 21
39 38 37 36 34 30 30 29 28 29 30 30 30 30 28 26 25 25 26 25 22 21 22 22 22 22 21 22 25 29 30 28 25 25 30 33 35 34 31 30 29 28 30 30 29 27 23 23 26 25 24 23 20 20 21 22 21 19 18 18 18 19 20 21 22 22 22 25 26 26 26 23 21 22 23 23 23 23 22 21 21 22 21 20 18 18 19 20
40 39 38 36 33 31 30 29 29 30 30 29 29 29 27 26 26 26 26 24 22 22 23 23 22 23 23 22 23 26 29 30 27 26 29 32 34 34 31 30 30 28 29 30 30 30 26 23 25 26 25 24 21 20 20 21 22 20 18 18 18 17 18 18 19 21 21 21 22 24 27 26 23 22 22 22 24 24 23 22 22 21 22 21 19 17 18 20
40 39 38 35 32 31 31 31 31 32 30 29 29 27 26 26 28 29 27 24 23 23 23 24 24 23 24 24 24 25 27 29 29 27 29 32 33 34 33 31 30 29 30 30 29 30 29 26 25 25 27 26 23 21 20 21 22 21 19 19 18 16 16 17 18 19 20 19 18 20 23 25 25 23 21 21 22 24 24 23 23 22 22 21 20 18 18 19
40 39 36 33 31 31 31 32 32 32 31 30 28 26 26 27 28 28 27 25 23 23 24 25 26 26 25 25 24 25 26 27 29 29 29 32 33 34 35 34 33 31 28 28 28 29 28 28 28 27 26 28 26 23 21 21 22 23 22 21 19 17 16 17 17 17 17 18 18 18 19 22 23 23 24 25 23 22 23 23 23 22 21 21 21 20 19 19
40 37 33 31 31 31 32 33 32 31 30 29 28 27 28 30 28 26 26 26 25 26 26 25 26 27 27 26 24 24 26 27 28 29 29 31 32 33 34 36 36 33 28 27 29 29 29 28 30 29 25 27 29 26 22 21 21 24 23 22 21 19 16 15 15 16 16 16 18 18 17 19 19 18 20 23 25 25 24 23 23 22 22 21 21 21 20 20
39 35 32 30 30 31 32 32 31 30 29 28 27 27 29 30 29 27 26 26 26 27 27 28 27 27 27 27 25 23 24 25 27 29 30 31 32 32 33 34 36 35 31 29 28 29 31 28 27 30 27 27 29 28 25 22 21 23 23 23 23 21 18 15 14 14 14 14 16 17 17 16 15 15 15 17 21 25 25 25 25 24 23 23 22 21 20 20
37 33 30 29 30 31 31 31 30 29 29 28 27 28 28 28 26 26 26 26 27 27 27 28 27 27 27 27 25 24 24 25 26 28 30 31 31 31 32 32 34 37 35 31 28 27 30 27 26 29 29 28 29 29 28 25 21 21 24 25 22 21 20 18 15 13 13 14 15 16 17 16 16 17 18 18 20 22 23 23 23 23 23 23 23 22 21 20
34 32 29 28 29 30 30 29 29 28 27 27 27 27 27 26 26 27 27 27 28 28 27 26 25 25 26 26 25 24 24 25 26 27 29 31 29 29 30 29 30 34 34 32 29 28 27 25 25 29 30 29 29 29 30 29 24 21 24 24 21 20 21 19 16 15 15 15 14 16 18 18 17 17 18 21 23 23 23 23 23 23 22 22 22 22 22 22
34 31 27 27 30 30 29 28 27 27 26 26 27 28 26 26 27 28 28 28 28 29 28 29 28 26 27 27 26 25 25 25 25 25 28 30 28 27 29 29 28 30 31 31 29 28 27 25 24 28 30 28 28 29 29 31 30 25 22 22 22 22 21 20 18 16 15 14 13 16 18 18 19 16 15 19 23 23 24 24 24 24 23 23 22 23 23 22
33 30 25 26 30 28 27 26 26 25 25 25 26 26 25 26 26 27 27 28 28 29 30 31 30 29 29 28 27 26 26 26 25 25 26 27 27 27 28 30 30 29 30 32 31 27 26 26 23 26 30 28 28 30 30 30 32 29 24 23 24 22 20 21 20 17 16 13 11 13 16 16 18 18 17 18 19 21 23 23 24 24 24 24 23 23 23 23
32 27 23 27 29 26 25 24 22 22 22 23 24 24 25 25 26 26 27 27 28 29 30 31 31 31 31 30 29 28 28 28 27 27 26 26 27 26 26 28 30 30 30 33 34 30 27 27 24 23 28 30 30 31 32 30 30 30 28 26 25 23 20 20 21 20 18 14 11 11 12 12 12 16 19 19 18 19 21 22 22 23 24 24 24 24 23 23
30 25 23 27 28 25 24 20 17 17 19 20 21 23 24 24 25 25 25 26 27 29 30 32 32 32 32 31 30 29 28 29 28 29 28 27 26 26 26 27 29 30 30 32 35 33 29 29 28 25 26 30 30 30 32 32 31 30 29 28 26 25 23 20 20 21 20 17 14 11 11 9 8 12 16 18 18 19 20 21 22 22 23 23 23 23 23 24
28 24 24 27 27 25 21 16 13 14 15 17 19 21 22 23 23 24 24 25 26 27 29 31 32 33 33 32 31 30 29 29 29 29 28 27 26 26 25 26 27 28 29 31 33 33 31 30 30 28 26 27 29 30 32 33 32 31 30 29 28 27 26 23 20 19 20 20 17 15 13 10 8 10 12 14 16 17 19 20 21 22 23 23 23 23 22 23
27 25 24 25 25 23 18 13 12 12 12 14 16 18 19 21 21 22 22 23 24 25 27 29 30 31 32 31 31 32 31 30 30 29 28 27 27 26 26 25 26 27 27 29 30 31 32 31 30 29 27 26 26 28 31 32 32 32 31 31 30 30 29 26 22 19 19 21 19 17 15 12 10 11 11 12 14 15 17 19 20 21 21 22 22 21 20 20
27 25 23 23 23 21 15 12 12 12 12 13 14 15 16 17 18 19 20 21 22 23 25 27 28 29 30 31 32 32 31 29 30 29 29 28 27 27 26 25 25 26 26 28 29 29 32 34 33 30 27 26 27 27 30 33 33 32 31 32 32 32 31 28 25 22 21 21 21 18 15 12 11 12 12 13 14 15 15 17 18 19 20 21 21 20 19 19
27 23 22 22 21 18 15 13 12 12 12 13 13 13 13 14 15 16 18 19 20 22 23 25 27 28 30 31 33 34 32 30 30 29 29 29 28 28 27 26 26 26 26 27 29 30 31 33 35 33 31 30 29 28 29 32 33 32 31 33 34 34 33 29 27 25 23 22 22 20 16 11 11 13 13 13 13 14 15 15 16 17 18 19 18 18 19 19
26 22 22 22 19 17 16 14 13 12 11 12 11 11 11 12 13 14 16 17 19 20 22 23 25 26 28 29 31 33 33 32 32 30 29 30 30 29 28 28 27 27 26 27 28 30 31 32 35 35 32 29 27 26 25 28 31 33 34 34 33 34 33 30 28 27 25 23 24 23 19 14 13 14 14 13 12 12 12 13 14 15 16 16 17 18 19 20
25 22 23 22 18 16 16 15 14 13 12 11 11 10 11 12 12 12 13 15 16 18 20 21 22 23 25 26 28 31 32 32 33 33 31 30 30 30 29 29 28 27 27 27 27 29 30 32 34 35 33 30 27 25 25 27 29 31 34 35 34 33 34 33 32 29 25 24 24 23 22 20 17 15 14 14 13 11 11 12 13 14 14 15 16 18 19 20
24 22 22 21 18 17 17 16 16 15 13 12 10 10 11 11 11 12 12 13 15 16 18 20 20 21 23 24 27 30 30 31 33 32 31 30 30 30 30 30 29 27 27 27 27 28 30 31 32 34 35 33 30 28 27 27 28 29 30 33 34 34 35 35 34 32 29 27 24 21 23 24 22 19 16 14 13 12 12 12 12 13 14 15 16 17 19 20
25 22 21 21 19 18 17 17 17 15 14 12 10 9 11 12 12 12 12 13 14 14 16 19 19 20 22 24 26 29 29 30 32 31 29 30 31 31 30 31 30 28 27 28 27 28 29 29 30 31 33 34 34 32 30 29 29 30 31 32 32 33 35 35 35 34 33 31 27 24 24 24 23 23 20 17 16 15 14 13 14 14 14 15 16 17 18 19
25 23 21 21 20 18 17 17 16 15 14 12 10 10 11 12 12 12 12 12 14 14 15 18 19 19 22 23 25 28 30 31 32 32 30 30 31 31 31 31 30 29 28 28 28 28 29 29 29 30 32 33 35 34 33 32 31 31 33 34 34 34 34 34 34 34 34 33 31 29 28 25 23 22 22 21 20 19 17 17 17 17 16 15 16 17 18 18
24 23 21 20 20 19 17 16 15 14 13 11 11 11 12 12 12 12 12 12 12 12 13 16 18 19 21 23 25 27 30 31 33 34 33 33 33 33 33 33 32 30 30 30 29 29 30 29 29 29 31 33 33 34 35 34 34 35 36 36 36 36 35 34 33 32 32 32 32 31 30 27 23 22 22 22 22 21 20 20 20 20 20 19 19 19 19 19
24 23 21 20 19 18 17 16 15 13 12 12 12 12 12 12 12 12 11 10 10 11 13 15 17 18 20 23 24 25 27 30 32 34 35 35 36 36 36 36 35 33 33 32 31 31 31 30 29 29 31 31 31 32 33 33 34 37 38 38 37 37 36 35 34 34 33 31 30 30 28 25 23 22 22 22 22 22 21 20 21 21 22 22 21 21 21 20
Wind_Direction
317 316 316 315 314 313 313 312 312 311 310 310 311 309 308 307 306 306 305 304 304 302 298 293 288 285 281 280 279 278 277 272 265 257 249 247 244 234 228 219 210 206 205 201 197 194 192 196 196 195 198 203 211 210 208 216 219 219 217 218 219 217 203 179 163 153 159 83 86 169 184 188 171 165 155 163 186 170 176 180 170 173 173 164 156 155 160 164
316 316 315 314 313 313 312 311 310 309 309 309 309 308 306 305 303 302 301 301 300 300 298 295 290 286 282 279 277 277 277 270 264 258 250 249 246 235 226 217 210 205 202 200 198 196 194 196 195 195 201 204 209 207 206 211 214 218 218 219 224 219 196 179 171 155 163 107 49 162 187 203 195 177 175 186 191 182 187 185 179 177 167 159 158 160 162 166
316 315 314 314 313 312 311 310 309 308 308 308 307 306 305 303 302 300 299 297 296 296 296 294 292 288 284 279 277 276 274 270 265 258 252 250 242 231 222 213 209 206 204 202 201 201 198 197 194 197 203 206 208 206 208 209 211 219 219 220 224 220 204 193 193 185 183 225 271 183 178 205 194 174 182 193 192 197 207 194 186 182 173 167 166 167 166 170
315 314 314 313 312 311 310 309 308 307 306 306 306 304 303 301 300 298 297 295 293 292 291 291 290 288 284 280 277 275 272 269 262 251 245 241 229 221 215 210 207 208 207 205 203 204 203 198 196 200 206 209 209 209 213 208 208 216 217 221 219 212 207 196 193 195 204 228 256 218 184 195 182 178 192 194 196 214 224 203 192 186 176 173 171 172 172 174
315 314 313 312 311 310 308 307 306 306 305 305 304 303 301 299 298 297 295 292 290 289 287 286 285 284 282 279 275 271 267 263 255 239 231 224 216 214 212 208 206 207 208 207 206 206 205 200 199 203 208 211 209 210 216 211 212 219 219 224 222 215 207 190 189 197 208 223 241 232 221 207 187 199 209 203 200 206 212 197 191 184 175 174 175 175 177 178
315 314 312 311 310 309 307 306 306 305 304 304 303 301 300 298 296 294 292 290 288 286 284 282 280 280 279 276 271 264 254 254 251 235 227 220 215 219 217 211 206 206 208 208 208 207 206 203 202 206 210 213 211 211 216 212 215 224 222 222 221 219 215 204 204 208 215 231 246 243 239 223 206 220 223 213 210 199 185 183 179 176 172 173 175 177 179 180
315 314 312 311 310 308 307 306 305 304 303 302 301 300 298 297 295 293 290 288 285 283 280 278 276 275 274 272 266 258 249 251 253 240 231 224 224 228 223 214 208 207 208 208 207 207 206 205 206 208 211 214 213 213 216 212 215 223 224 222 219 217 218 218 218 220 228 240 246 245 247 231 220 233 228 215 214 209 191 177 169 167 168 171 175 179 182 182
315 314 313 311 310 309 308 307 306 304 302 301 300 298 296 295 293 291 289 285 283 279 276 273 271 270 269 266 262 257 249 249 250 244 237 233 233 231 222 216 211 208 209 209 207 207 207 208 209 210 212 215 214 214 214 214 217 221 223 223 219 217 219 222 224 228 234 239 241 242 249 239 228 237 236 217 211 204 190 175 166 165 167 172 177 181 184 184
314 313 312 311 310 309 308 308 306 304 303 301 299 297 295 293 291 290 286 283 280 276 273 269 266 264 262 261 260 258 252 249 249 246 242 238 234 227 221 218 213 210 210 210 208 207 208 210 210 211 216 216 214 215 214 215 219 219 222 224 221 221 222 225 228 230 233 236 237 241 247 243 233 236 238 220 206 195 185 176 168 168 171 175 179 182 184 184
313 312 311 310 309 308 308 307 306 305 303 302 300 296 293 292 290 288 284 281 278 274 269 264 260 257 256 257 255 254 251 248 249 247 242 236 229 223 221 219 213 210 210 210 210 209 210 212 211 212 219 219 215 217 216 217 219 215 220 226 225 227 227 228 230 231 234 238 238 243 248 245 233 228 230 214 198 188 181 178 175 175 176 178 181 182 184 186
313 312 310 309 308 308 307 306 305 304 303 302 300 296 293 291 289 285 282 279 276 271 266 260 255 251 252 253 250 248 248 248 249 249 240 228 222 219 219 218 213 211 211 211 211 211 212 213 212 213 220 219 216 219 221 221 222 221 223 227 227 228 228 227 230 232 232 236 237 242 247 245 232 220 222 206 186 184 185 182 182 184 183 183 182 182 184 187
313 311 310 309 308 308 307 306 304 303 302 300 298 296 294 291 288 283 280 278 275 269 263 255 249 248 250 250 248 246 247 249 247 243 234 220 216 216 218 218 214 212 211 211 212 211 212 214 212 212 217 217 215 220 224 221 222 225 225 227 229 229 228 225 227 230 230 233 235 236 242 240 226 217 216 198 180 183 189 184 186 190 189 186 184 183 184 187
313 311 310 309 308 308 307 305 304 302 300 298 296 295 293 291 286 281 279 277 273 268 260 251 247 248 248 249 250 247 244 245 240 233 226 217 214 217 220 219 214 214 214 212 212 210 212 214 213 214 217 218 216 219 222 219 221 225 224 226 228 229 228 224 224 228 230 233 229 227 237 234 214 209 205 185 179 185 189 188 189 192 192 191 188 186 187 188
311 310 309 309 308 308 307 306 304 301 298 296 294 293 291 288 283 280 278 275 271 264 255 248 247 248 247 249 252 247 242 240 238 230 223 220 219 220 219 215 213 216 216 215 212 210 211 213 213 216 219 220 220 220 221 219 220 223 224 224 224 225 224 219 219 224 226 227 222 223 234 234 208 198 194 183 185 189 191 193 193 193 193 193 192 190 190 190
310 309 308 308 307 307 306 306 304 301 297 294 293 291 288 284 279 277 275 272 269 261 251 249 248 247 250 253 250 244 239 238 236 229 225 225 222 222 218 213 213 214 214 215 213 210 212 213 214 217 219 219 222 221 219 220 220 219 221 221 219 222 223 217 215 220 224 222 218 220 227 232 214 195 194 191 194 196 197 196 195 196 194 193 194 193 193 192
309 308 308 307 306 306 306 305 303 300 296 292 291 289 284 279 276 273 271 269 264 258 253 252 248 247 253 255 246 240 236 236 235 228 226 227 223 222 218 211 212 212 212 213 212 210 211 213 215 217 218 218 220 219 219 222 221 218 220 222 219 219 221 219 216 219 224 225 221 222 227 233 221 199 199 198 201 204 205 201 196 199 198 195 196 195 195 193
308 307 307 306 306 306 305 304 302 299 295 292 289 286 281 276 272 269 267 264 262 259 257 255 248 247 252 251 244 240 235 233 233 228 226 225 223 221 217 212 211 211 210 211 211 209 209 212 215 217 218 219 219 218 220 221 219 217 218 221 223 221 219 217 215 216 222 226 226 226 230 236 230 207 206 208 209 211 211 207 199 200 203 201 199 198 197 195
307 306 306 305 305 304 304 303 301 298 295 292 288 283 279 274 270 267 264 261 260 257 256 252 245 248 249 243 243 241 233 230 229 227 224 222 221 219 215 214 211 206 208 210 210 207 208 211 214 217 218 218 217 215 218 219 218 218 217 218 221 221 220 218 216 214 217 223 227 229 230 234 231 218 217 220 216 216 217 212 206 204 205 205 204 201 199 197
307 306 305 304 303 303 303 302 300 298 295 291 287 281 275 273 269 265 261 259 256 253 254 247 238 247 250 240 240 240 234 230 228 226 222 219 216 214 212 213 208 204 207 211 211 209 208 211 214 218 218 217 216 216 218 220 220 222 222 220 221 222 223 222 222 219 219 224 229 232 234 234 233 226 223 224 221 220 219 215 211 209 207 208 208 206 202 200
307 306 305 303 303 302 301 300 297 296 294 290 288 280 274 276 270 263 263 262 255 253 256 251 241 246 251 243 240 240 235 231 229 225 220 216 211 208 209 209 206 208 212 212 211 210 211 215 217 218 218 217 217 218 219 221 223 225 224 223 224 226 226 224 224 224 225 231 232 235 239 238 237 235 226 223 223 222 220 216 213 211 210 210 210 208 204 202
307 306 305 304 303 301 300 298 295 294 292 287 286 279 274 278 273 268 270 267 259 254 254 253 247 245 246 243 240 238 236 232 228 223 218 214 210 208 209 208 207 212 215 212 210 211 213 219 221 217 218 218 218 219 220 221 222 224 224 225 226 227 229 229 227 224 225 233 235 237 242 240 239 241 230 222 224 223 220 218 215 212 213 214 213 211 206 202
308 307 305 304 302 301 299 296 293 292 288 283 283 278 274 276 273 270 269 266 263 257 252 251 248 245 243 242 240 238 239 235 228 222 217 213 211 211 211 210 212 214 212 211 211 212 217 223 222 217 217 219 220 220 220 222 223 224 225 227 228 227 229 231 230 227 227 233 237 239 243 242 240 240 230 222 226 226 223 221 216 214 215 216 215 213 207 202
308 307 306 304 303 301 298 294 291 290 285 281 283 279 277 277 273 270 265 263 264 259 252 248 245 243 241 239 238 235 236 234 229 223 217 214 214 214 213 212 215 214 212 213 213 213 218 225 222 218 218 219 220 219 218 221 225 226 227 228 229 227 227 230 228 227 230 233 238 242 244 242 239 237 231 227 228 227 225 223 219 217 216 216 216 214 209 204
308 307 306 305 303 301 298 292 289 288 283 279 280 279 278 277 274 270 265 262 262 258 253 247 243 243 240 236 234 230 232 233 231 226 218 216 216 216 216 216 215 216 216 215 216 217 221 223 220 218 218 218 218 217 218 221 225 227 228 227 228 228 228 230 228 225 228 232 235 241 245 243 238 236 233 229 227 226 225 224 222 219 218 217 217 215 211 206
309 307 306 305 302 301 298 289 286 289 282 275 277 279 278 277 274 269 265 262 259 256 251 245 242 242 237 233 230 227 230 232 230 227 221 217 217 217 218 219 218 219 218 216 218 223 225 223 218 216 217 216 218 220 220 221 225 227 227 227 229 230 230 231 231 230 232 233 231 235 242 242 235 234 234 228 223 224 224 224 222 219 217 216 215 215 213 209
308 307 306 304 302 302 296 285 285 289 281 275 279 281 278 276 272 265 263 262 258 252 245 242 242 238 233 231 228 226 231 233 228 225 222 219 218 218 219 219 220 222 219 217 222 227 226 222 218 215 214 215 220 224 221 219 224 227 226 226 228 231 232 231 232 233 235 237 235 233 237 241 236 232 232 225 220 221 223 223 221 218 216 215 214 213 212 210
308 307 306 304 302 300 293 285 287 287 280 278 281 281 278 274 268 262 260 259 255 247 241 241 240 236 234 231 225 224 230 231 224 222 222 219 217 219 222 220 220 222 219 219 224 226 223 220 216 213 214 218 222 224 220 217 222 226 225 225 225 226 229 231 232 235 237 240 238 233 234 242 241 233 228 224 219 219 222 223 220 217 215 214 214 213 212 211
308 306 305 304 301 297 290 286 287 284 281 282 282 279 276 272 264 258 258 256 249 242 241 240 237 236 236 231 224 223 228 228 224 222 220 218 217 219 223 222 220 221 218 220 225 223 220 218 215 213 215 219 222 222 218 216 221 224 223 224 224 223 226 230 234 237 239 240 238 233 232 241 242 235 231 229 224 220 221 222 219 216 214 213 215 215 213 212
308 306 305 304 301 294 289 287 285 283 284 283 280 278 274 267 258 253 253 252 245 241 243 239 235 236 234 230 226 227 229 230 229 224 218 217 218 219 224 224 222 222 220 223 226 223 221 221 218 216 217 220 221 220 218 216 219 221 220 222 223 223 225 228 232 236 237 239 238 234 232 238 243 236 230 228 226 222 223 223 219 216 213 212 214 215 214 213
308 306 304 303 299 293 289 287 283 283 286 283 280 277 270 259 253 250 247 246 244 244 243 237 236 237 234 232 230 228 228 228 228 224 219 218 217 219 223 223 223 224 223 224 226 226 225 222 221 220 221 222 221 219 219 217 217 218 218 221 223 224 226 228 231 233 236 239 238 235 232 236 244 238 228 227 226 222 223 222 218 215 213 212 213 214 214 212
308 305 303 300 295 291 290 287 285 286 286 283 280 275 264 254 251 247 245 245 247 246 242 238 239 240 239 240 235 228 226 226 226 222 219 218 216 217 219 219 220 223 223 224 225 225 224 221 221 222 221 221 221 221 219 216 215 216 216 218 221 223 224 227 228 228 235 241 238 234 233 235 240 237 228 228 227 222 221 220 216 213 213 212 212 213 214 212
307 304 301 296 290 288 287 286 287 287 284 282 279 270 258 253 248 244 246 249 247 245 243 242 243 242 242 243 237 230 227 226 224 221 219 218 217 217 217 217 216 217 221 222 222 223 223 223 222 219 219 218 218 219 216 213 214 215 215 216 217 216 217 222 223 226 235 239 235 232 231 232 236 236 230 229 226 221 220 221 218 214 213 212 211 210 211 211
308 304 299 293 288 286 285 285 285 284 283 281 274 264 255 252 248 245 247 248 245 246 246 246 246 245 243 241 235 230 229 226 222 220 219 218 218 219 218 218 216 217 221 221 219 220 222 224 221 217 217 216 215 215 214 212 213 213 213 214 215 215 215 220 222 227 235 235 229 229 230 232 236 237 233 229 226 220 217 218 218 215 213 213 211 209 209 209
310 305 298 292 288 286 285 285 283 280 279 276 268 261 253 249 248 249 248 247 248 249 249 250 249 245 241 237 233 230 228 226 222 220 219 218 219 220 218 218 218 219 222 221 220 219 219 222 220 215 214 214 213 215 215 214 214 214 214 216 218 219 220 223 224 227 233 231 222 220 224 230 233 234 231 225 222 219 217 217 219 218 217 216 214 210 210 209
312 306 298 292 290 289 288 285 281 278 274 269 262 256 252 250 249 249 249 251 251 250 251 252 248 243 238 233 231 230 227 224 222 221 220 219 220 221 219 218 218 218 220 221 221 220 221 225 219 214 215 213 212 214 215 215 215 215 215 218 220 221 223 229 233 234 237 233 221 217 224 229 229 228 225 219 215 215 217 219 221 222 221 220 217 212 210 209
314 308 300 295 294 292 290 285 280 275 269 264 258 252 250 251 250 249 251 253 253 252 253 250 241 237 234 229 227 227 228 227 224 222 222 220 220 221 219 218 218 218 219 221 221 219 222 225 217 211 213 213 211 212 213 214 216 214 215 219 221 221 224 230 235 236 237 236 226 221 226 228 231 233 225 216 213 211 212 213 215 219 220 219 217 213 210 209
318 311 303 299 299 296 290 284 279 273 266 260 255 252 250 249 251 252 254 255 253 251 249 243 236 234 233 230 229 230 232 229 224 223 221 218 219 221 220 219 219 217 219 222 223 220 221 223 216 210 211 212 211 211 213 216 217 215 216 218 217 218 223 228 232 229 229 234 231 226 227 224 227 232 224 216 215 213 213 213 213 215 216 216 215 213 211 210
321 314 306 306 306 300 292 285 278 270 264 258 253 251 250 249 251 253 254 255 251 247 243 238 236 235 233 233 233 234 233 228 223 223 220 216 219 223 221 220 219 218 220 222 221 220 220 220 216 211 211 209 208 211 214 215 217 220 220 216 214 217 220 221 226 227 226 232 234 229 229 226 225 226 221 215 213 213 215 214 214 214 215 217 216 213 213 212
324 317 312 315 314 306 298 288 279 270 261 256 252 249 249 251 252 253 253 252 249 244 240 237 236 235 234 236 237 234 232 230 227 225 221 219 221 222 221 221 221 221 222 221 219 219 219 219 217 213 210 208 208 213 215 213 215 220 221 218 217 220 221 220 223 227 227 231 232 228 227 227 228 227 224 218 212 211 213 213 215 216 216 218 218 215 213 212
327 321 319 323 320 312 303 291 280 272 262 256 253 251 252 254 253 253 252 250 246 242 239 237 237 235 235 237 237 234 231 231 230 226 224 222 221 219 220 223 224 225 225 220 219 220 220 220 219 212 208 210 212 215 215 213 213 215 218 218 217 218 222 225 225 225 227 229 229 229 228 227 227 224 221 220 215 212 212 213 216 217 216 216 218 217 214 211
330 326 325 328 325 318 310 296 284 277 267 260 258 256 255 254 252 252 251 248 244 240 239 238 238 236 236 236 235 233 231 230 229 226 225 223 220 219 221 224 226 227 225 219 218 220 220 220 219 214 210 213 216 217 216 216 215 215 218 219 218 217 220 224 225 224 227 230 229 233 236 231 221 214 214 216 217 217 216 217 217 216 216 215 216 217 215 211
334 332 330 332 330 325 316 303 292 285 273 268 265 261 258 254 252 252 250 248 244 240 238 237 236 235 234 233 233 232 230 229 227 225 223 221 221 221 222 225 226 225 223 219 217 219 220 219 219 217 214 216 219 217 216 217 217 217 220 220 219 219 220 222 223 221 224 229 231 234 237 232 215 207 207 210 216 220 220 219 218 216 216 215 215 217 215 211
339 335 333 335 335 331 324 312 304 294 283 279 274 267 262 257 254 253 250 248 244 240 237 235 234 234 231 231 231 230 229 228 226 223 222 220 221 222 223 225 225 222 220 218 216 217 219 218 217 218 218 218 219 218 216 218 218 218 220 220 220 221 221 223 226 225 225 226 225 226 229 226 213 207 210 213 217 221 220 218 218 217 215 215 216 216 212 208
341 338 337 341 341 339 337 328 317 304 294 291 283 275 268 260 257 255 252 248 242 238 237 234 233 233 232 231 230 229 228 226 222 221 222 221 221 222 223 223 223 221 217 218 219 217 217 217 216 217 217 215 216 216 215 216 218 220 221 220 221 222 221 223 226 228 229 225 221 222 223 221 214 212 216 219 218 219 218 216 216 216 215 215 216 214 209 209
344 343 344 344 344 347 348 340 328 317 308 302 294 284 275 266 261 259 256 250 242 239 238 235 234 235 234 233 231 228 226 224 221 221 222 222 221 221 223 224 223 222 220 222 223 219 217 217 216 215 216 215 215 215 216 216 217 220 221 220 220 220 220 221 224 226 227 225 224 224 221 214 212 214 215 213 212 213 215 215 214 214 213 214 214 212 210 214
347 346 346 346 346 348 350 346 337 328 318 310 301 291 283 276 270 265 260 251 243 242 240 235 234 234 233 233 231 226 224 223 222 223 223 223 222 221 223 224 222 222 224 226 223 219 218 219 218 218 220 221 219 219 221 220 219 218 219 220 220 220 219 220 223 225 226 226 227 226 222 217 213 212 210 205 203 204 207 210 211 210 210 210 210 211 213 217
349 347 348 348 347 346 347 347 342 336 326 316 306 295 289 286 280 273 265 254 249 249 241 231 229 230 230 232 230 225 223 223 223 224 225 225 224 223 222 222 220 222 225 225 221 219 219 219 219 221 224 224 224 224 224 222 221 220 219 220 220 220 220 221 224 225 224 225 228 224 221 221 218 210 206 206 208 209 210 212 211 209 211 212 211 211 212 215
351 349 349 349 346 343 343 343 340 336 328 320 311 299 294 293 290 282 272 261 257 253 239 229 229 231 231 233 230 226 224 223 222 223 224 225 225 223 221 220 218 220 223 222 220 219 218 218 218 221 225 226 226 226 225 224 224 224 223 221 221 220 221 223 225 226 225 227 229 224 221 223 220 215 213 215 218 218 219 219 216 213 213 214 214 212 211 212
351 349 348 347 344 340 338 337 335 333 331 326 317 306 300 300 298 289 279 269 262 254 241 236 238 236 232 232 230 226 225 223 221 221 224 227 226 223 221 220 217 218 221 221 219 218 218 218 219 222 226 227 226 225 226 226 226 226 226 225 224 223 224 225 227 227 228 230 231 228 227 226 222 222 226 230 230 228 229 229 225 221 217 213 213 214 213 214
350 349 346 343 341 339 336 335 333 332 333 330 321 315 309 304 302 296 287 277 268 257 246 242 243 240 234 230 228 227 227 226 225 225 226 227 224 221 221 220 219 221 222 221 219 218 218 219 222 224 226 226 225 225 226 227 227 228 228 227 227 227 227 227 227 227 229 231 231 231 232 229 225 226 231 236 235 234 235 234 232 231 228 223 221 220 220 221
348 347 345 342 340 339 337 336 333 330 331 330 324 321 316 308 305 302 293 282 269 258 251 249 248 243 235 231 229 229 228 228 228 228 228 227 225 223 222 222 223 224 223 221 221 220 220 222 223 222 223 223 223 223 225 227 230 231 229 226 226 227 228 229 228 227 228 229 230 230 231 231 228 229 232 234 234 234 234 234 235 235 233 233 232 228 226 227
346 346 346 342 339 338 337 335 333 327 325 327 325 321 317 311 309 306 297 284 271 264 260 257 253 245 236 232 230 229 229 229 230 230 229 228 227 226 225 225 225 225 223 223 222 220 221 223 222 220 221 221 220 221 224 226 229 231 229 226 226 227 228 229 229 229 229 229 228 229 230 231 231 231 232 231 230 232 235 236 237 237 235 235 235 232 232 234